CW1459 Weather Reports


time (UTC)temp
F
wind
direction
speed
knots
gust
knots
rain 1hr
in
rain 24hr
in
rain mn
in
humidity
%
barometer
mb
20260906223312 75 44 0.0 1.7 0.00 0.00 0.00 63 1014.3
20260906222321 76 5 0.9 2.6 0.00 0.00 0.00 61 1014.4
20260906221314 77 50 0.0 5.2 0.00 0.00 0.00 57 1014.3
20260906220332 79 343 3.5 7.8 0.00 0.00 0.00 52 1014.2
20260906215355 79 332 2.6 7.8 0.00 0.00 0.00 54 1014.1
20260906214314 79 5 5.2 10.4 0.00 0.00 0.00 53 1014.0
20260906213348 79 323 1.7 7.0 0.00 0.00 0.00 55 1014.0
20260906212337 79 130 1.7 7.0 0.00 0.00 0.00 54 1014.0
20260906211328 80 5 6.1 9.6 0.00 0.00 0.00 53 1014.0
20260906210333 80 340 2.6 4.3 0.00 0.00 0.00 53 1014.0
20260906205313 79 21 1.7 6.1 0.00 0.00 0.00 55 1013.9
20260906204332 79 138 1.7 8.7 0.00 0.00 0.00 56 1013.9
20260906203315 81 137 4.3 12.2 0.00 0.00 0.00 53 1013.9
20260906202349 81 50 2.6 5.2 0.00 0.00 0.00 49 1013.8
20260906201312 83 30 3.5 7.0 0.00 0.00 0.00 49 1013.8
20260906200331 83 351 4.3 7.8 0.00 0.00 0.00 52 1013.8
20260906195334 83 5 1.7 7.8 0.00 0.00 0.00 51 1013.8
20260906194338 82 5 6.1 11.3 0.00 0.00 0.00 51 1013.8
20260906193332 81 23 3.5 7.8 0.00 0.00 0.00 54 1013.9
20260906192319 83 9 1.7 8.7 0.00 0.00 0.00 49 1013.9
20260906191312 84 19 1.7 8.7 0.00 0.00 0.00 49 1013.9
20260906190313 83 103 1.7 4.3 0.00 0.00 0.00 49 1013.9
20260906185317 82 26 1.7 4.3 0.00 0.00 0.00 51 1014.1
20260906184337 82 338 1.7 8.7 0.00 0.00 0.00 51 1014.2
20260906182318 81 348 2.6 7.0 0.00 0.00 0.00 54 1014.2
20260906181336 78 294 1.7 4.3 0.00 0.00 0.00 60 1014.2
20260906180337 78 5 2.6 7.0 0.00 0.00 0.00 59 1014.2
20260906175334 80 340 4.3 10.4 0.00 0.00 0.00 56 1014.1
20260906174332 79 351 4.3 7.8 0.00 0.00 0.00 58 1014.2
20260906173341 80 333 4.3 8.7 0.00 0.00 0.00 56 1014.2
20260906172337 81 57 2.6 12.2 0.00 0.00 0.00 55 1014.3
20260906171317 82 32 3.5 8.7 0.00 0.00 0.00 54 1014.3
20260906170317 81 67 3.5 9.6 0.00 0.00 0.00 53 1014.5
20260906165340 81 294 3.5 7.0 0.00 0.00 0.00 52 1014.5
20260906164323 80 289 2.6 7.8 0.00 0.00 0.00 57 1014.7
20260906163330 80 317 3.5 7.0 0.00 0.00 0.00 57 1014.6
20260906162312 79 302 5.2 9.6 0.00 0.00 0.00 56 1014.7
20260906161334 80 24 4.3 9.6 0.00 0.00 0.00 59 1014.8
20260906160339 79 309 3.5 8.7 0.00 0.00 0.00 60 1014.9
20260906155336 79 328 1.7 9.6 0.00 0.00 0.00 57 1014.9
20260906154327 79 360 2.6 7.8 0.00 0.00 0.00 62 1014.8
20260906153338 78 333 2.6 7.8 0.00 0.00 0.00 63 1014.9
20260906152332 78 323 4.3 9.6 0.00 0.00 0.00 62 1014.9
20260906151336 77 34 4.3 7.8 0.00 0.00 0.00 62 1014.8
20260906150317 77 12 5.2 10.4 0.00 0.00 0.00 65 1014.8
20260906145318 76 333 4.3 7.8 0.00 0.00 0.00 67 1014.7
20260906144337 76 12 4.3 7.8 0.00 0.00 0.00 70 1014.7
20260906143329 76 335 3.5 7.8 0.00 0.00 0.00 71 1014.7
20260906142333 75 48 1.7 5.2 0.00 0.00 0.00 72 1014.7
20260906141333 73 332 2.6 5.2 0.00 0.00 0.00 74 1014.7
20260906140313 72 351 0.9 3.5 0.00 0.00 0.00 79 1014.6
20260906135319 71 336 1.7 2.6 0.00 0.00 0.00 82 1014.6
20260906134341 69 44 0.0 2.6 0.00 0.00 0.00 83 1014.6
20260906133318 68 302 0.9 2.6 0.00 0.00 0.00 84 1014.7
20260906132337 67 19 0.9 2.6 0.00 0.00 0.00 87 1014.6
20260906131319 66 24 1.7 2.6 0.00 0.00 0.00 91 1014.6
20260906130312 65 338 0.9 1.7 0.00 0.00 0.00 93 1014.7
20260906125319 63 149 0.0 1.7 0.00 0.00 0.00 95 1014.5
20260906124312 62 149 0.9 1.7 0.00 0.00 0.00 96 1014.5
20260906123312 61 149 0.0 0.9 0.00 0.00 0.00 96 1014.4
20260906122335 61 149 0.0 1.7 0.00 0.00 0.00 96 1014.3
20260906121336 60 149 0.0 0.9 0.00 0.00 0.00 96 1014.2
20260906120336 59 149 0.0 0.9 0.00 0.00 0.00 96 1014.0
20260906115316 58 149 0.0 0.0 0.00 0.00 0.00 96 1013.8
20260906114333 58 149 0.0 0.9 0.00 0.00 0.00 95 1013.7
20260906113356 57 149 0.0 0.0 0.00 0.00 0.00 95 1013.5
20260906112324 57 149 0.0 0.9 0.00 0.00 0.00 95 1013.5
20260906111313 57 149 0.0 1.7 0.00 0.00 0.00 95 1013.6
20260906110316 57 60 0.9 0.9 0.00 0.00 0.00 95 1013.5
20260906105313 57 38 0.0 0.9 0.00 0.00 0.00 95 1013.4
20260906104311 57 38 0.0 0.9 0.00 0.00 0.00 95 1013.3
20260906103336 57 38 0.0 0.9 0.00 0.00 0.00 95 1013.1
20260906102331 57 38 0.0 0.9 0.00 0.00 0.00 94 1013.1
20260906101343 58 38 0.9 0.9 0.00 0.00 0.00 94 1013.0
20260906100311 58 38 0.0 0.9 0.00 0.00 0.00 94 1012.9
20260906095336 58 38 0.9 2.6 0.00 0.00 0.00 94 1012.8
20260906094334 58 33 0.9 1.7 0.00 0.00 0.00 94 1012.7
20260906093317 58 96 0.0 0.9 0.00 0.00 0.00 94 1012.6
20260906092323 58 96 0.0 0.9 0.00 0.00 0.00 94 1012.5
20260906091351 58 96 0.0 0.9 0.00 0.00 0.00 94 1012.5
20260906090333 58 96 0.0 0.0 0.00 0.00 0.00 94 1012.3
20260906085339 58 96 0.0 0.0 0.00 0.00 0.00 94 1012.3
20260906084320 58 96 0.0 0.0 0.00 0.00 0.00 94 1012.3
20260906083333 59 96 0.0 0.0 0.00 0.00 0.00 93 1012.2
20260906082341 59 96 0.0 0.9 0.00 0.00 0.00 93 1012.2
20260906081341 59 96 0.0 0.9 0.00 0.00 0.00 93 1012.3
20260906080316 59 96 0.0 1.7 0.00 0.00 0.00 93 1012.3
20260906075339 59 96 0.0 0.0 0.00 0.00 0.00 93 1012.4
20260906074319 59 96 0.0 0.0 0.00 0.00 0.00 93 1012.2
20260906073340 59 96 0.0 0.0 0.00 0.00 0.00 93 1012.0
20260906072340 59 96 0.0 0.0 0.00 0.00 0.00 92 1012.0
20260906071319 60 96 0.9 1.7 0.00 0.00 0.00 92 1012.0
20260906070315 60 96 0.0 0.9 0.00 0.00 0.00 92 1011.9
20260906065401 60 96 0.0 0.9 0.00 0.00 0.00 92 1012.0
20260906064316 60 96 0.0 1.7 0.00 0.00 0.00 92 1012.0
20260906063319 61 96 0.9 1.7 0.00 0.00 0.00 91 1011.8
20260906062322 61 96 0.0 0.9 0.00 0.00 0.00 91 1011.9
20260906061315 61 96 0.9 1.7 0.00 0.00 0.00 91 1011.9
20260906060318 62 96 0.9 1.7 0.00 0.00 0.00 90 1012.0
20260906055333 62 96 1.7 1.7 0.00 0.00 0.00 90 1012.1
20260906054316 62 42 0.0 1.7 0.00 0.00 0.00 90 1012.1
20260906053317 63 42 0.9 1.7 0.00 0.00 0.00 89 1012.0
20260906052341 63 87 0.9 1.7 0.00 0.00 0.00 89 1012.0
20260906051337 63 87 0.9 2.6 0.00 0.00 0.00 89 1012.0
20260906050318 64 17 0.9 2.6 0.00 0.00 0.00 88 1012.0
20260906045352 64 306 0.9 1.7 0.00 0.00 0.00 88 1012.1
20260906044339 64 306 0.0 0.9 0.00 0.00 0.00 88 1012.2
20260906043315 64 306 0.0 1.7 0.00 0.00 0.00 87 1012.3
20260906042341 64 306 0.0 1.7 0.00 0.00 0.00 87 1012.3
20260906041316 65 306 0.9 1.7 0.00 0.00 0.00 87 1012.2
20260906040338 65 306 0.9 1.7 0.00 0.00 0.00 87 1012.1
20260906035355 65 306 0.0 1.7 0.00 0.00 0.00 86 1012.2
20260906034342 65 306 0.0 1.7 0.00 0.00 0.00 85 1012.3
20260906033341 66 306 0.0 0.9 0.00 0.00 0.00 85 1012.3
20260906032340 66 306 0.0 1.7 0.00 0.00 0.00 83 1012.2
20260906031338 67 306 0.0 2.6 0.00 0.00 0.00 82 1012.1
20260906030322 68 117 0.9 2.6 0.00 0.00 0.00 81 1012.1
20260906025317 68 28 0.0 1.7 0.00 0.00 0.00 79 1012.0
20260906024339 68 28 0.9 2.6 0.00 0.00 0.00 79 1011.9
20260906023341 69 28 1.7 2.6 0.00 0.00 0.00 77 1011.9
20260906022335 70 70 0.9 2.6 0.00 0.00 0.00 76 1011.8
20260906021336 71 24 0.9 1.7 0.00 0.00 0.00 74 1011.7
20260906020318 72 44 0.9 5.2 0.00 0.00 0.00 71 1011.7
20260906015354 72 112 3.5 8.7 0.00 0.00 0.00 71 1011.6
20260906014316 72 136 2.6 6.1 0.00 0.00 0.00 72 1011.5
20260906013316 72 123 1.7 6.1 0.00 0.00 0.00 72 1011.4
20260906012339 72 98 1.7 6.1 0.00 0.00 0.00 73 1011.3
20260906011332 72 136 2.6 7.8 0.00 0.00 0.00 74 1011.3
20260906010315 72 120 2.6 6.1 0.00 0.00 0.00 75 1011.2
20260906005330 72 128 1.7 5.2 0.00 0.00 0.00 76 1011.0
20260906004400 72 130 1.7 3.5 0.00 0.00 0.00 77 1011.0
20260906003337 71 103 1.7 3.5 0.00 0.00 0.00 78 1011.0
20260906002331 72 22 0.9 2.6 0.00 0.00 0.00 78 1010.9
20260906001400 72 49 0.9 2.6 0.00 0.00 0.00 76 1010.7
20260906000340 73 122 0.9 2.6 0.00 0.00 0.00 74 1010.6
20260905235319 73 96 0.9 3.5 0.00 0.00 0.00 74 1010.5
20260905234331 74 85 0.9 2.6 0.00 0.00 0.00 73 1010.4
20260905233335 75 113 0.9 2.6 0.00 0.00 0.00 73 1010.5
20260905232337 75 93 0.9 2.6 0.00 0.00 0.00 73 1010.4
20260905231315 77 89 0.9 1.7 0.00 0.00 0.00 71 1010.4
20260905230337 78 351 0.0 1.7 0.00 0.00 0.00 67 1010.3
20260905225319 78 26 1.7 2.6 0.00 0.00 0.00 66 1010.1
20260905224331 78 15 0.9 1.7 0.00 0.00 0.00 69 1010.0